When you browse on this site, cookies collect data to enhance your experience and personalize the content and advertising you see.
Visit our Privacy Policy to learn more. By continuing to use the site, you agree to this use of cookies and data.
  • In Romania
  • List of Countries
  • For 7 days
  • Water Temperature
  • Satellite Maps
  • Weather Map
  • Weather Widgets
  • user-avatar
    Login

    Hourly Weather Ulin

    Today, 21 March, Thursday

    Time Temperature Precipitation Wind Pressure Humidity
    00:00 -1°C° 0.3 mm 3 mps 747 mmHg 84%
    01:00 -1°C° 0.3 mm 3 mps 746 mmHg 87%
    02:00 -1°C° 0 mm 3 mps 746 mmHg 92%
    03:00 -1°C° 0.5 mm 3 mps 746 mmHg 92%
    04:00 -1°C° 0.5 mm 3 mps 746 mmHg 92%
    05:00 0°C° 0.5 mm 3 mps 745 mmHg 92%
    06:00 0°C° 0 mm 3 mps 746 mmHg 91%
    07:00 0°C° 0 mm 3 mps 746 mmHg 89%
    08:00 0°C° 0 mm 4 mps 746 mmHg 87%
    09:00 0°C° 0 mm 4 mps 746 mmHg 86%
    10:00 +1°C° 0 mm 4 mps 747 mmHg 84%
    11:00 +1°C° 0 mm 4 mps 747 mmHg 83%
    12:00 +3°C° 0 mm 4 mps 747 mmHg 79%
    13:00 +4°C° 0 mm 4 mps 747 mmHg 74%
    14:00 +5°C° 0 mm 4 mps 747 mmHg 69%
    15:00 +5°C° 0 mm 3 mps 747 mmHg 72%
    16:00 +5°C° 0 mm 3 mps 747 mmHg 75%
    17:00 +5°C° 0 mm 2 mps 747 mmHg 77%
    18:00 +4°C° 0 mm 2 mps 746 mmHg 81%
    19:00 +3°C° 0 mm 2 mps 746 mmHg 85%
    20:00 +1°C° 0 mm 2 mps 746 mmHg 89%
    21:00 +2°C° 0 mm 2 mps 746 mmHg 89%
    22:00 +2°C° 0 mm 2 mps 745 mmHg 89%
    23:00 +3°C° 0 mm 2 mps 745 mmHg 89%

    Tomorrow, 22 March, Friday

    Time Temperature Precipitation Wind Pressure Humidity
    00:00 +2°C° 0.2 mm 3 mps 744 mmHg 90%
    01:00 +2°C° 0.2 mm 3 mps 743 mmHg 91%
    02:00 +1°C° 0.2 mm 4 mps 742 mmHg 92%
    03:00 +3°C° 0.8 mm 4 mps 741 mmHg 93%
    04:00 +3°C° 0.8 mm 4 mps 741 mmHg 93%
    05:00 +4°C° 0.8 mm 4 mps 740 mmHg 94%
    06:00 +2°C° 0.7 mm 5 mps 740 mmHg 89%
    07:00 +1°C° 0.7 mm 6 mps 740 mmHg 85%
    08:00 0°C° 0.7 mm 7 mps 741 mmHg 80%
    09:00 0°C° 0.1 mm 7 mps 741 mmHg 74%
    10:00 -1°C° 0.1 mm 7 mps 742 mmHg 69%
    11:00 -1°C° 0.1 mm 8 mps 743 mmHg 63%
    12:00 -1°C° 0.1 mm 7 mps 744 mmHg 66%
    13:00 -2°C° 0.1 mm 7 mps 744 mmHg 68%
    14:00 -2°C° 0.1 mm 7 mps 745 mmHg 71%
    15:00 -2°C° 0.1 mm 7 mps 745 mmHg 73%
    16:00 -2°C° 0.1 mm 7 mps 745 mmHg 75%
    17:00 -2°C° 0.1 mm 7 mps 745 mmHg 77%
    18:00 -2°C° 0.1 mm 7 mps 746 mmHg 78%
    19:00 -2°C° 0.1 mm 7 mps 746 mmHg 78%
    20:00 -2°C° 0.1 mm 7 mps 747 mmHg 78%
    21:00 -2°C° 0.1 mm 6 mps 747 mmHg 79%
    22:00 -2°C° 0.1 mm 6 mps 748 mmHg 80%
    23:00 -2°C° 0.1 mm 6 mps 748 mmHg 81%

    Day after tomorrow, 23 March, Saturday

    Time Temperature Precipitation Wind Pressure Humidity
    00:00 -1°C° 0 mm 5 mps 749 mmHg 82%
    01:00 -1°C° 0 mm 5 mps 749 mmHg 83%
    02:00 -2°C° 0 mm 4 mps 749 mmHg 84%
    03:00 -2°C° 0 mm 4 mps 750 mmHg 86%
    04:00 -3°C° 0 mm 4 mps 750 mmHg 88%
    05:00 -2°C° 0 mm 3 mps 750 mmHg 90%
    06:00 -2°C° 0 mm 3 mps 751 mmHg 88%
    07:00 -1°C° 0 mm 3 mps 751 mmHg 87%
    08:00 -1°C° 0 mm 3 mps 751 mmHg 85%
    09:00 +1°C° 0 mm 2 mps 751 mmHg 82%
    10:00 +2°C° 0 mm 1 mps 751 mmHg 79%
    11:00 +3°C° 0 mm 1 mps 751 mmHg 76%
    12:00 +4°C° 0 mm 1 mps 751 mmHg 73%
    13:00 +5°C° 0 mm 1 mps 750 mmHg 70%
    14:00 +5°C° 0 mm 1 mps 750 mmHg 68%
    15:00 +5°C° 0 mm 1 mps 749 mmHg 70%
    16:00 +4°C° 0 mm 2 mps 749 mmHg 73%
    17:00 +4°C° 0 mm 2 mps 748 mmHg 75%
    18:00 +3°C° 0 mm 2 mps 748 mmHg 78%
    19:00 +1°C° 0 mm 3 mps 747 mmHg 81%
    20:00 0°C° 0 mm 3 mps 747 mmHg 84%
    21:00 0°C° 0.2 mm 3 mps 746 mmHg 81%
    22:00 +1°C° 0.2 mm 3 mps 745 mmHg 78%
    23:00 0°C° 0.2 mm 4 mps 745 mmHg 75%

    24 March, Sunday

    Time Temperature Precipitation Wind Pressure Humidity
    00:00 +1°C° 1.2 mm 3 mps 744 mmHg 77%
    01:00 +1°C° 1.2 mm 3 mps 744 mmHg 80%
    02:00 +1°C° 1.2 mm 3 mps 743 mmHg 83%
    03:00 +1°C° 0.1 mm 3 mps 743 mmHg 87%
    04:00 +1°C° 0.1 mm 3 mps 743 mmHg 90%
    05:00 +2°C° 0.1 mm 2 mps 743 mmHg 94%
    06:00 +1°C° 0 mm 3 mps 743 mmHg 93%
    07:00 +1°C° 0 mm 3 mps 743 mmHg 92%
    08:00 0°C° 0 mm 4 mps 743 mmHg 90%
    09:00 +1°C° 0 mm 4 mps 743 mmHg 82%
    10:00 +2°C° 0 mm 5 mps 743 mmHg 74%
    11:00 +2°C° 0 mm 5 mps 743 mmHg 66%
    12:00 +3°C° 0 mm 5 mps 743 mmHg 62%
    13:00 +3°C° 0 mm 6 mps 743 mmHg 59%
    14:00 +3°C° 0 mm 6 mps 743 mmHg 55%
    15:00 +2°C° 0.1 mm 5 mps 743 mmHg 57%
    16:00 +1°C° 0.1 mm 4 mps 743 mmHg 60%
    17:00 +2°C° 0.1 mm 3 mps 743 mmHg 62%
    18:00 0°C° 0 mm 3 mps 743 mmHg 67%
    19:00 -1°C° 0 mm 3 mps 743 mmHg 71%
    20:00 -2°C° 0 mm 2 mps 743 mmHg 76%
    21:00 -2°C° 0 mm 2 mps 743 mmHg 77%
    22:00 -3°C° 0 mm 2 mps 743 mmHg 78%
    23:00 -3°C° 0 mm 2 mps 743 mmHg 79%

    25 March, Monday

    Time Temperature Precipitation Wind Pressure Humidity
    00:00 -3°C° 0 mm 2 mps 743 mmHg 80%
    01:00 -4°C° 0 mm 2 mps 743 mmHg 80%
    02:00 -4°C° 0 mm 2 mps 743 mmHg 81%
    03:00 -4°C° 0 mm 2 mps 743 mmHg 83%
    04:00 -4°C° 0 mm 2 mps 743 mmHg 84%
    05:00 -4°C° 0 mm 2 mps 742 mmHg 86%
    06:00 -3°C° 0 mm 2 mps 742 mmHg 82%
    07:00 -2°C° 0 mm 2 mps 742 mmHg 77%
    08:00 -1°C° 0 mm 2 mps 742 mmHg 73%
    09:00 +1°C° 0 mm 2 mps 742 mmHg 68%
    10:00 +2°C° 0 mm 2 mps 741 mmHg 64%
    11:00 +3°C° 0 mm 3 mps 741 mmHg 60%
    12:00 +3°C° 0.1 mm 3 mps 740 mmHg 59%
    13:00 +3°C° 0.1 mm 3 mps 740 mmHg 59%
    14:00 +4°C° 0.1 mm 3 mps 739 mmHg 59%
    15:00 +3°C° 0.1 mm 3 mps 739 mmHg 62%
    16:00 +4°C° 0.1 mm 2 mps 738 mmHg 64%
    17:00 +4°C° 0.1 mm 1 mps 738 mmHg 66%
    18:00 +3°C° 0 mm 1 mps 738 mmHg 70%
    19:00 +2°C° 0 mm 1 mps 738 mmHg 74%
    20:00 -1°C° 0 mm 2 mps 737 mmHg 78%
    21:00 -2°C° 0 mm 2 mps 737 mmHg 80%
    22:00 -2°C° 0 mm 2 mps 737 mmHg 82%
    23:00 0°C° 0 mm 1 mps 736 mmHg 84%

    26 March, Tuesday

    Time Temperature Precipitation Wind Pressure Humidity
    00:00 -2°C° 0.2 mm 2 mps 736 mmHg 86%
    01:00 -2°C° 0.2 mm 2 mps 736 mmHg 87%
    02:00 -2°C° 0.2 mm 2 mps 736 mmHg 89%
    03:00 -2°C° 0.6 mm 2 mps 736 mmHg 91%
    04:00 -1°C° 0.6 mm 2 mps 736 mmHg 92%
    05:00 -1°C° 0.6 mm 3 mps 736 mmHg 93%
    06:00 -1°C° 0.4 mm 3 mps 737 mmHg 91%
    07:00 -1°C° 0.4 mm 3 mps 737 mmHg 90%
    08:00 -2°C° 0.4 mm 4 mps 737 mmHg 88%
    09:00 -1°C° 0.2 mm 4 mps 738 mmHg 86%
    10:00 -1°C° 0.2 mm 4 mps 738 mmHg 84%
    11:00 0°C° 0.2 mm 5 mps 738 mmHg 82%
    12:00 0°C° 0.2 mm 5 mps 739 mmHg 82%
    13:00 0°C° 0.2 mm 5 mps 739 mmHg 82%
    14:00 0°C° 0.2 mm 5 mps 739 mmHg 82%
    15:00 0°C° 0.3 mm 5 mps 740 mmHg 83%
    16:00 0°C° 0.3 mm 5 mps 740 mmHg 84%
    17:00 -1°C° 0.3 mm 4 mps 741 mmHg 84%
    18:00 -1°C° 0 mm 4 mps 741 mmHg 85%
    19:00 -1°C° 0 mm 4 mps 742 mmHg 85%
    20:00 -2°C° 0 mm 4 mps 743 mmHg 85%
    21:00 -2°C° 0 mm 4 mps 743 mmHg 87%
    22:00 -2°C° 0 mm 4 mps 743 mmHg 88%
    23:00 -3°C° 0 mm 4 mps 744 mmHg 89%
    Show more